STARLINK-32149, 60292

Orbit data source: Space-Track

STARLINK-32149, 60292 is a payload satellite owned by SpaceX/Seattle (US) in LEO that was launched on Sun, 28 Jul 2024 UTC via an FALCON 9 launch vehicle from the Air Force Eastern Test Range (AFETR). Payload-class satellites include a variety of spacecraft equipped with specific instruments for various scientific and technological missions. These include communications satellites like Starlink; space stations such as the ISS; scientific satellites like the Hubble; Earth observation satellites from companies like Planet Labs, Umbra, and HawkEye 360; GPS; miniature CubeSats for education and research; and military/defense satellites.

Loading next visibility...
Identifier
60292, 2024-132Q
Orbit
LEO
Last TLE update
20 hours ago
Origin
Manufacturer
SpaceX/Seattle
Mission
Operational spacecraft
Bus & Motor
STARLINK V2M, Unknown motor
Mass
730 kg wet, ~700 kg dry
Launch date (UTC)
2024-07-28 (9 months ago)
Launch vehicle
FALCON 9
Launch site
Air Force Eastern Test Range (AFETR)
Object type
Payload
Rocket body
Debris
Shape & HBR
Unknown
Radar Cross Section
Large (>1 m²)

Expand to show TLE details & history

TLE from 20 hours ago
0 STARLINK-32149
1 60292U 24132Q   25128.96727943  .00001034  00000-0  47043-4 0  9996
2 60292  53.1617  28.0043 0001151 100.5029 259.6101 15.30187639 44900
Epoch: 2025-05-08T23:12Z
Definitive object data (Epoch: 2025-05-08T23:12:52.942Z)
Latitude
-0.00008°
Longitude
172.75347°
Altitude
476.294 km
Speed
7.629 km/s
True Right ascension
01h 52m 01s
True Declination
0° 00' 00"
Sunlit
Object was in daylight at TLE epoch
Visualization TLE readout
Latitude
-49.04184°
Longitude
48.02715°
Altitude
492.777 km
Speed
7.618 km/s
Apparent Right ascension
16h 22m 35s
Apparent Declination
-45° 43' 48"
Sunlit
Object is in full shadow
Visualization observer readout
Local Sidereal Time
03:17:47
Azimuth
238.555° WSW
Elevation
-76.805°
Doppler factor
1
Orbital elements
Apogee altitude
476.297 km
Perigee altitude
474.719 km
Semi-major axis
6,853.645 km
Eccentricity
0.0001151
Inclination
53.1617°
RAAN
28.0043°
Arg. of periapsis
100.5029°
True anomaly
259.59713°
Mean anomaly
259.6101°
Eccentric anomaly
259.60361°
Mean motion
3.82526 °/min
BSTAR
0.000047043
Orbital period
94.11 mins
Loading maneuver chart data...
Loading SW <> Apogee altitude chart data...
Loading historical data...
Loading historical data...
Loading historical data...
Loading historical data...
Loading historical data...
Loading historical data...
Loading historical data...

STARLINK-32149 Visibility forecast

Observer location: undefined°, undefined°

Span
Click to sort rows by Start time (UTC) header in descending order
Start Az.
Max El. time (UTC)
Max El. Az.
Max El.
End time (UTC)
End Az.
6 mins2025-05-09 19:45:52.093Z220.899° SW2025-05-09 19:48:52.093Z164.988° S43.113°2025-05-09 19:51:52.093Z55.308° ENE
4 mins2025-05-09 21:25:52.093Z304.756° NW2025-05-09 21:26:52.093Z325.721° NNW19.05°2025-05-09 21:29:52.093Z23.511° NE
5 mins2025-05-10 02:21:52.093Z322.366° NNW2025-05-10 02:23:52.093Z16.91° NNE40.253°2025-05-10 02:26:52.093Z114.956° SE
|